Location: Heidgraben
(53.7081°N, 9.6576°E)
Time: 04:16:20
(UTC+00:00)

Cosmos 1869 - Pass Details

Date: 05 July 2020
Orbit: 520 x 563 km, 82.5° (Epoch: 06 August)

Event Time Altitude Azimuth Distance (km) Brightness Sun altitude
Rises 21:59:42 0° 343° (NNW) 2,698 9.1 -11.4°
Reaches altitude 10° 22:01:56 10° 335° (NNW) 1,809 7.5 -11.5°
Maximum altitude 22:05:38 38° 267° (W) 845 4.4 -11.7°
Enters shadow 22:09:06 11° 200° (SSW) 1,726 5.4 -11.8°
